Wind_Speed
21 22 21 26 28 29 31 31 32 33 37 38 35 32 33 29 30 31 31 31 32 32 31 33 31 28 28 29 30 29 30 31 30 30 30 29 27 27 26 24 25 24 28
21 22 25 29 32 33 32 34 36 38 43 41 40 40 37 35 35 33 34 34 36 38 38 36 35 33 30 32 34 35 34 33 33 33 34 33 31 29 28 29 27 28 26
23 25 30 33 37 35 33 36 40 43 46 46 43 41 42 42 43 39 38 38 39 40 42 41 40 38 35 33 33 36 38 38 37 35 35 36 36 34 32 31 32 31 30
27 29 31 34 31 36 36 44 46 48 51 49 47 45 45 41 40 41 42 43 43 42 44 43 43 43 42 38 35 33 36 39 41 40 38 37 38 38 37 34 34 35 34
28 31 33 38 34 38 49 46 49 52 53 52 51 49 44 40 39 39 40 42 45 47 47 47 47 46 45 45 42 38 35 35 38 42 40 41 40 40 39 39 38 36 38
33 35 34 39 45 46 47 51 51 53 55 56 52 49 46 42 42 42 42 45 47 49 50 50 50 50 49 48 48 46 41 38 37 38 41 39 41 40 41 41 41 42 39
34 39 42 45 47 49 50 53 56 55 53 54 51 49 46 45 47 49 49 47 49 50 51 52 53 54 53 53 51 50 48 45 42 39 39 41 39 41 43 42 42 42 42
37 40 43 46 48 51 55 57 52 53 50 49 49 49 53 53 51 50 50 47 47 48 51 52 54 53 54 55 55 54 53 52 49 45 40 38 44 42 42 45 45 44 44
41 45 48 51 54 54 56 52 51 53 49 51 49 46 48 50 51 49 47 47 46 49 50 51 53 55 56 54 53 55 55 55 54 52 49 46 44 43 45 43 46 47 44
51 53 55 56 53 54 55 54 55 54 53 42 42 42 42 45 48 52 51 50 54 56 55 51 54 56 59 59 57 54 54 55 57 56 54 52 51 48 46 46 45 47 47
54 54 55 53 53 57 52 53 53 49 46 43 43 42 43 43 45 50 53 52 50 52 52 48 48 51 52 56 58 58 56 54 55 58 58 57 53 51 51 48 41 46 46
52 51 50 50 47 46 44 45 47 51 42 42 42 45 44 43 46 49 48 45 44 40 45 46 45 43 40 42 47 51 54 56 57 56 59 62 58 54 55 55 50 45 45
48 48 49 49 50 48 44 46 50 42 41 42 40 40 43 45 43 42 41 42 43 41 42 43 40 37 31 33 37 40 42 41 39 45 50 59 63 61 59 59 55 50 48
49 50 50 49 48 41 45 43 52 47 41 35 37 42 39 35 34 34 36 39 42 41 41 39 37 36 33 27 31 34 35 35 34 32 35 40 56 59 64 58 61 54 50
47 48 48 44 32 45 36 38 42 34 36 37 38 35 31 31 33 34 35 35 39 47 49 46 40 33 34 32 27 29 32 33 30 29 29 35 39 57 58 59 56 55 54
45 46 44 35 38 39 37 40 33 31 35 37 34 33 34 36 36 36 37 40 41 44 52 47 45 39 34 36 32 28 31 33 31 28 28 31 36 41 46 52 57 59 53
44 44 43 41 39 39 37 34 27 33 37 37 36 37 36 36 37 39 42 43 43 43 47 47 43 39 37 36 32 32 26 33 30 29 30 29 30 32 37 38 42 56 55
43 41 39 39 36 32 29 31 29 34 38 37 35 34 35 39 42 45 47 46 46 43 43 44 39 34 34 35 34 30 31 25 35 33 30 30 31 30 32 35 33 40 45
41 38 37 33 29 27 30 29 30 36 38 36 35 37 40 43 47 47 47 45 40 36 35 37 35 30 28 32 35 30 24 35 26 33 32 31 30 31 31 34 37 43 39
40 37 33 28 27 26 27 29 33 35 37 35 36 39 42 45 46 46 42 38 37 35 33 33 31 28 25 28 32 33 32 33 35 31 31 33 32 29 33 30 33 40 40
38 34 29 28 22 26 27 32 32 36 36 36 37 39 42 45 44 40 39 39 38 36 32 30 28 24 20 21 26 31 32 32 32 34 38 34 34 33 26 24 29 35 42
35 31 27 22 26 26 28 30 33 35 35 37 39 39 43 43 38 36 36 35 33 31 28 27 26 23 26 25 24 23 28 27 27 31 34 36 38 35 34 25 26 29 28
31 28 22 23 24 27 28 32 35 34 35 36 38 41 43 38 35 35 33 30 29 26 24 23 25 23 23 26 28 30 32 29 25 28 34 35 35 37 37 28 22 20 24
29 26 24 24 26 28 31 34 32 32 32 34 37 41 41 34 33 31 30 28 26 24 23 24 24 23 23 21 24 29 32 31 29 27 31 32 31 35 39 34 35 28 26
27 25 25 25 27 30 31 30 31 31 32 34 37 40 37 31 30 29 28 27 26 24 22 22 24 24 21 21 21 22 23 26 26 26 28 29 24 30 39 40 36 34 35
26 24 23 24 25 27 28 30 30 30 32 34 36 38 33 29 28 26 26 27 27 24 21 19 18 20 19 17 18 20 19 19 20 22 23 23 23 28 32 37 40 38 37
Wind_Direction
317 318 316 314 319 325 325 321 319 319 321 321 318 315 310 307 307 302 291 286 283 282 283 283 280 272 258 252 255 255 257 257 255 253 253 250 250 248 248 245 241 242 231
310 308 305 307 318 314 314 316 315 313 317 314 313 310 305 304 303 299 293 289 284 281 279 276 269 270 269 264 252 252 252 251 253 251 250 251 249 246 245 243 239 236 236
306 314 318 315 310 307 310 310 307 306 310 308 307 304 301 301 301 296 291 287 282 278 278 275 269 266 265 263 265 258 251 252 250 250 249 247 249 247 242 240 241 237 231
311 310 306 303 299 297 303 305 301 303 305 305 303 300 298 296 294 292 289 285 280 277 275 272 270 268 266 262 259 261 263 253 251 251 249 248 246 245 247 242 239 239 237
298 305 293 294 285 294 306 301 300 302 303 303 303 302 299 295 291 290 287 284 282 280 276 273 271 268 264 263 260 256 257 259 257 252 250 249 248 247 245 244 241 239 237
301 285 285 297 301 299 296 295 297 298 300 300 298 296 294 290 288 286 285 284 281 278 275 273 270 268 266 261 260 261 257 255 254 256 253 250 248 247 245 244 241 239 237
295 294 297 298 296 296 295 296 298 300 299 296 294 292 291 289 287 287 289 286 282 279 276 273 270 267 265 263 260 257 259 256 253 255 254 251 247 245 246 244 243 240 238
303 303 300 295 294 296 299 301 302 303 298 295 295 295 295 292 291 290 288 284 280 279 278 277 274 270 265 261 260 258 254 257 256 253 251 251 251 247 242 245 245 242 240
304 304 305 305 300 300 304 298 301 304 296 297 297 298 298 295 294 290 286 287 287 286 283 279 277 274 270 265 260 256 255 252 254 255 250 248 250 250 249 246 245 245 243
307 309 309 310 307 305 306 300 301 298 297 294 295 300 300 297 296 294 294 295 293 292 292 287 279 276 275 271 265 260 256 253 251 250 251 250 249 253 251 247 250 248 245
309 310 309 305 301 299 298 298 298 295 294 308 310 308 303 297 296 296 295 294 295 298 292 286 280 273 271 270 267 265 262 257 252 249 247 247 248 251 255 252 247 247 247
307 305 301 298 299 298 295 300 301 304 307 309 307 305 301 298 297 294 293 296 297 302 300 295 291 286 279 274 272 268 264 261 256 250 245 242 242 246 250 252 248 244 247
306 305 306 307 307 308 305 309 299 296 306 304 300 297 296 297 294 292 294 294 295 298 297 294 292 290 279 269 266 265 265 261 259 256 248 241 240 241 242 246 248 246 243
309 309 309 308 306 306 299 300 298 311 310 307 304 303 304 302 303 303 300 300 298 298 295 293 290 284 286 272 262 260 261 262 258 254 247 243 238 237 237 242 244 244 240
312 310 309 309 298 302 304 304 299 308 312 307 305 306 305 305 302 299 298 299 299 299 296 294 292 286 277 275 266 259 258 258 254 252 252 245 239 237 240 238 238 241 242
313 313 314 310 301 302 306 316 314 314 311 314 311 308 305 304 303 303 304 301 298 296 293 293 290 287 279 273 266 258 254 250 248 246 247 247 244 239 241 240 238 237 242
319 317 313 308 305 308 311 308 308 309 314 314 311 308 305 303 303 306 304 303 300 297 292 290 288 284 275 270 268 258 257 251 242 241 243 244 246 246 244 240 243 240 241
320 314 308 308 308 308 301 298 303 308 312 311 307 307 308 310 311 311 308 305 302 298 294 290 286 280 271 265 264 261 245 245 243 240 241 242 242 247 245 238 233 238 242
320 317 314 310 307 299 295 299 302 311 311 311 313 311 314 313 313 311 307 305 303 300 295 291 289 281 267 258 260 258 254 248 247 247 240 238 243 248 253 241 238 240 240
320 316 312 307 300 300 302 293 307 311 313 314 314 316 315 313 313 311 309 307 305 301 297 291 286 281 269 256 255 257 244 248 244 247 248 243 241 247 253 250 230 228 236
317 315 309 302 291 301 296 301 307 314 316 316 316 316 315 316 315 312 311 309 306 302 298 292 288 275 264 268 262 258 256 248 244 240 248 254 247 244 255 261 218 207 213
318 314 310 302 298 299 300 305 312 317 318 316 317 318 321 319 315 313 312 309 307 303 299 293 290 277 252 251 253 253 259 257 246 239 238 242 249 249 249 237 203 204 206
315 314 309 301 299 301 307 312 317 318 317 319 322 324 324 322 319 319 317 315 313 305 296 292 286 283 272 256 239 247 259 258 250 239 239 238 241 244 252 245 219 192 204
315 312 308 304 304 307 309 313 317 318 320 323 326 328 328 325 322 321 321 322 316 308 296 286 285 284 277 270 258 252 253 253 248 242 242 240 238 237 241 241 232 224 219
316 311 308 308 305 304 309 316 319 321 323 327 330 332 329 324 325 325 326 326 323 313 300 289 286 284 278 268 263 256 256 255 248 245 245 244 236 235 236 237 239 243 238
316 313 313 311 308 313 319 320 322 324 325 330 333 333 329 327 329 329 334 334 330 325 307 292 286 286 284 268 258 256 252 250 247 242 237 240 234 232 232 233 235 239 239
Height
3173 3171 3170 3168 3165 3162 3160 3157 3155 3153 3150 3148 3146 3145 3143 3140 3137 3136 3135 3134 3133 3131 3130 3129 3127 3127 3125 3123 3121 3121 3121 3122 3123 3123 3123 3124 3125 3128 3128 3129 3131 3134 3136
3170 3168 3166 3163 3159 3156 3154 3152 3149 3147 3144 3142 3140 3137 3135 3133 3131 3129 3127 3127 3126 3124 3123 3123 3122 3120 3119 3119 3117 3114 3113 3113 3114 3115 3117 3118 3119 3120 3122 3124 3125 3128 3131
3165 3162 3159 3156 3154 3150 3148 3146 3143 3140 3138 3135 3133 3131 3129 3126 3123 3121 3119 3117 3116 3114 3113 3113 3113 3113 3111 3110 3110 3110 3108 3106 3107 3107 3109 3111 3112 3113 3116 3118 3119 3122 3123
3160 3157 3155 3153 3149 3145 3142 3139 3136 3133 3129 3126 3125 3123 3121 3119 3115 3112 3109 3106 3105 3104 3103 3103 3103 3103 3102 3101 3101 3101 3101 3102 3100 3100 3101 3103 3105 3107 3108 3111 3114 3115 3117
3155 3153 3149 3146 3141 3139 3136 3132 3128 3124 3119 3116 3113 3110 3109 3108 3104 3102 3099 3097 3095 3093 3092 3092 3092 3092 3093 3092 3092 3092 3092 3093 3093 3093 3092 3092 3094 3097 3097 3101 3103 3106 3110
3149 3145 3142 3140 3136 3133 3129 3124 3120 3116 3110 3105 3102 3100 3099 3097 3093 3090 3089 3087 3084 3082 3080 3079 3079 3079 3080 3081 3081 3081 3082 3084 3084 3084 3085 3085 3085 3086 3090 3091 3094 3099 3102
3143 3140 3137 3132 3128 3123 3118 3114 3109 3104 3099 3094 3089 3087 3086 3085 3082 3079 3076 3074 3072 3070 3069 3067 3066 3066 3066 3067 3069 3070 3070 3072 3074 3075 3075 3076 3077 3078 3080 3084 3087 3088 3092
3137 3133 3129 3124 3119 3113 3106 3100 3095 3091 3086 3082 3078 3074 3069 3069 3068 3067 3063 3061 3058 3056 3054 3053 3052 3052 3052 3053 3054 3055 3057 3059 3061 3064 3065 3066 3068 3069 3071 3072 3075 3080 3084
3129 3124 3119 3114 3108 3101 3095 3090 3084 3080 3075 3072 3068 3064 3058 3053 3049 3051 3052 3049 3046 3042 3041 3038 3036 3035 3035 3037 3038 3040 3042 3045 3048 3050 3053 3056 3056 3058 3060 3063 3064 3067 3071
3118 3113 3107 3101 3095 3088 3082 3077 3073 3069 3064 3060 3057 3054 3048 3041 3035 3030 3030 3028 3028 3028 3026 3024 3021 3020 3018 3018 3020 3024 3027 3031 3034 3036 3038 3042 3045 3046 3048 3050 3055 3057 3061
3106 3100 3094 3088 3083 3078 3072 3066 3061 3057 3052 3048 3044 3040 3038 3033 3028 3020 3015 3016 3013 3010 3006 3005 3004 3003 3001 2999 3001 3005 3010 3015 3019 3022 3024 3028 3031 3034 3035 3040 3044 3047 3051
3095 3090 3083 3078 3071 3066 3060 3055 3050 3045 3041 3037 3034 3029 3025 3020 3017 3009 3003 2999 2997 3000 2993 2990 2989 2988 2988 2986 2987 2989 2993 2996 3001 3006 3010 3014 3017 3020 3023 3027 3032 3038 3041
3084 3078 3071 3066 3061 3057 3050 3045 3041 3036 3030 3026 3024 3020 3015 3010 3004 2999 2993 2989 2984 2985 2983 2980 2978 2977 2978 2977 2977 2977 2979 2981 2984 2987 2992 2996 3001 3006 3010 3014 3018 3024 3029
3074 3068 3062 3058 3052 3047 3042 3037 3032 3024 3022 3017 3014 3010 3004 2999 2994 2990 2986 2980 2975 2973 2971 2971 2970 2969 2968 2969 2969 2969 2969 2970 2972 2975 2977 2980 2986 2991 2996 3001 3006 3011 3018
3065 3058 3052 3047 3043 3036 3032 3027 3021 3016 3014 3009 3004 3000 2995 2991 2987 2984 2979 2974 2969 2961 2958 2959 2961 2962 2960 2959 2961 2961 2961 2961 2963 2965 2968 2970 2972 2977 2982 2989 2994 2999 3005
3055 3047 3041 3037 3031 3025 3021 3017 3012 3008 3005 3001 2996 2992 2988 2984 2980 2976 2971 2967 2963 2956 2945 2949 2948 2950 2950 2949 2951 2952 2953 2953 2954 2957 2959 2961 2962 2965 2969 2974 2981 2987 2992
3043 3037 3030 3026 3022 3017 3013 3010 3006 3002 2998 2994 2989 2985 2981 2976 2972 2967 2962 2957 2951 2947 2938 2935 2936 2937 2937 2938 2940 2943 2945 2945 2946 2948 2951 2952 2954 2956 2959 2963 2968 2974 2981
3035 3028 3023 3018 3014 3011 3007 3003 3000 2996 2991 2987 2983 2977 2973 2967 2962 2956 2949 2943 2939 2934 2928 2922 2923 2925 2925 2927 2929 2932 2936 2937 2937 2939 2943 2945 2947 2948 2951 2955 2959 2963 2968
3026 3019 3013 3009 3006 3004 3000 2997 2993 2989 2985 2980 2974 2969 2963 2957 2951 2945 2938 2932 2927 2922 2918 2912 2912 2913 2914 2916 2917 2921 2925 2928 2929 2931 2933 2937 2940 2941 2942 2945 2949 2953 2958
3016 3011 3006 3003 3000 2997 2994 2991 2986 2982 2977 2972 2966 2960 2954 2947 2940 2933 2927 2921 2916 2912 2909 2904 2903 2903 2904 2906 2908 2910 2915 2918 2922 2923 2925 2928 2932 2934 2935 2937 2940 2944 2948
3009 3004 3000 2996 2993 2991 2988 2983 2980 2975 2969 2963 2958 2952 2946 2938 2930 2923 2917 2911 2906 2901 2899 2896 2894 2895 2896 2898 2899 2900 2903 2907 2911 2915 2918 2919 2923 2926 2930 2932 2934 2936 2939
3001 2996 2993 2990 2987 2984 2981 2977 2973 2968 2962 2956 2950 2944 2937 2929 2921 2915 2909 2903 2898 2893 2890 2888 2886 2886 2888 2890 2892 2893 2894 2897 2902 2906 2908 2911 2915 2917 2921 2928 2929 2931 2933
2995 2990 2987 2984 2981 2978 2974 2970 2966 2960 2955 2949 2942 2935 2928 2920 2913 2907 2901 2895 2890 2887 2883 2881 2879 2879 2879 2881 2883 2884 2886 2888 2892 2896 2898 2902 2906 2910 2913 2919 2923 2926 2932
2988 2984 2981 2978 2976 2972 2968 2964 2959 2954 2949 2943 2936 2928 2920 2913 2907 2900 2894 2889 2884 2880 2877 2875 2873 2872 2872 2872 2873 2875 2877 2878 2882 2886 2888 2892 2898 2903 2906 2911 2916 2920 2925
2982 2978 2975 2972 2969 2966 2961 2957 2952 2947 2942 2937 2930 2922 2914 2908 2902 2896 2889 2884 2879 2874 2870 2868 2866 2865 2865 2865 2866 2867 2869 2870 2874 2878 2880 2884 2891 2894 2898 2903 2909 2913 2917
2976 2973 2969 2967 2963 2959 2955 2951 2946 2941 2937 2931 2925 2917 2909 2903 2897 2891 2885 2879 2873 2868 2864 2862 2860 2858 2858 2858 2859 2860 2862 2864 2867 2870 2873 2878 2882 2885 2889 2894 2899 2905 2910